Location: Wien
(48.2082°N, 16.3738°E)
Time: 11:30:38
(UTC+02:00)

Transit 2A Rocket - All Passes

Search period start: 11 September 2024 00:00
Search period end: 21 September 2024 00:00
Orbit: 582 x 910 km, 66.7° (Epoch: 10 September)

Date Brightness Start Highest point End Pass type
(mag) Time Alt. Az. Time Alt. Az. Time Alt. Az.
11 Sep - 01:03:08 10° S 01:08:44 47° ESE 01:14:32 10° NE visible
11 Sep - 02:45:43 10° WSW 02:51:23 43° NW 02:57:11 10° NNE visible
11 Sep - 04:31:42 10° WNW 04:35:33 17° NNW 04:39:24 10° NNE visible
11 Sep - 06:17:52 10° NNW 06:20:39 13° N 06:23:24 10° NNE daylight
11 Sep - 08:00:42 10° NNW 08:05:27 24° NNE 08:09:59 10° E daylight
11 Sep - 09:43:00 10° NNW 09:48:57 79° NE 09:54:26 10° SE daylight
11 Sep - 11:26:40 10° WNW 11:30:44 20° WSW 11:34:34 10° SSW daylight
12 Sep - 00:19:40 10° SSE 00:24:40 30° ESE 00:29:50 10° NE visible
12 Sep - 02:00:57 10° SW 02:06:51 62° NW 02:12:56 10° NNE visible
12 Sep - 03:46:07 10° WNW 03:50:36 21° NNW 03:55:08 10° NNE visible
12 Sep - 05:32:51 10° NNW 05:35:33 13° N 05:38:12 10° NNE visible
12 Sep - 07:16:27 10° NNW 07:20:34 19° NNE 07:24:32 10° ENE daylight
12 Sep - 08:58:42 10° NNW 09:04:31 52° NE 09:09:53 10° SE daylight
12 Sep - 10:41:40 10° NW 10:46:48 33° WSW 10:51:34 10° S daylight
12 Sep - 23:36:53 10° SE 23:40:45 18° ESE 23:44:42 10° ENE visible
13 Sep - 01:16:30 10° SSW 01:22:27 89° SE 01:28:36 10° NE visible
13 Sep - 03:00:42 10° W 03:05:47 27° NW 03:10:54 10° NNE visible
13 Sep - 04:47:26 10° NW 04:50:26 14° N 04:53:25 10° NNE visible
13 Sep - 06:32:07 10° NNW 06:35:35 15° NNE 06:38:57 10° NE daylight
13 Sep - 08:14:26 10° NNW 08:19:55 36° NE 08:25:02 10° ESE daylight
13 Sep - 09:57:01 10° NW 10:02:43 54° WSW 10:07:57 10° SSE daylight
13 Sep - 22:56:15 10° ESE 22:56:56 10° E 22:57:38 10° E visible
14 Sep - 00:32:25 10° SSW 00:38:11 58° ESE 00:44:10 10° NE visible
14 Sep - 02:15:31 10° WSW 02:21:03 37° NW 02:26:40 10° NNE visible
14 Sep - 04:01:48 10° NW 04:05:23 16° NNW 04:08:56 10° NNE visible
14 Sep - 05:47:36 10° NNW 05:50:30 14° N 05:53:22 10° NE visible
14 Sep - 07:30:13 10° NNW 07:35:11 26° NNE 07:39:54 10° E daylight
14 Sep - 09:12:33 10° NW 09:18:28 86° WSW 09:23:54 10° SSE daylight
14 Sep - 10:56:46 10° WNW 11:00:02 16° WSW 11:03:08 10° SW daylight
14 Sep - 23:48:43 10° S 23:54:03 36° ESE 23:59:34 10° NE visible
15 Sep - 01:30:37 10° SW 01:36:27 52° NW 01:42:25 10° NNE visible
15 Sep - 03:16:10 10° WNW 03:20:23 19° NNW 03:24:36 10° NNE visible
15 Sep - 05:02:44 10° NNW 05:05:23 13° N 05:08:01 10° NNE visible
15 Sep - 06:45:57 10° NNW 06:50:20 20° NNE 06:54:30 10° ENE daylight
15 Sep - 08:28:12 10° NNW 08:34:05 62° NE 08:39:29 10° SE daylight
15 Sep - 10:11:26 10° NW 10:16:08 26° WSW 10:20:32 10° SSW daylight
15 Sep - 23:05:34 10° SSE 23:10:03 23° ESE 23:14:38 10° ENE visible
16 Sep - 00:46:00 10° SW 00:51:58 78° NW 00:58:07 10° NNE visible
16 Sep - 02:30:38 10° W 02:35:29 24° NNW 02:40:21 10° NNE visible
16 Sep - 04:17:27 10° NW 04:20:16 13° N 04:23:02 10° NNE visible
16 Sep - 06:01:39 10° NNW 06:05:21 16° NNE 06:08:57 10° ENE visible
16 Sep - 07:43:55 10° NNW 07:49:32 42° NE 07:54:44 10° ESE daylight
16 Sep - 09:26:38 10° NW 09:32:06 43° WSW 09:37:08 10° S daylight
16 Sep - 22:23:25 10° SE 22:26:10 13° E 22:28:57 10° ENE visible
17 Sep - 00:01:43 10° SSW 00:07:37 70° ESE 00:13:42 10° NE visible
17 Sep - 01:45:19 10° W 01:50:40 32° NW 01:56:06 10° NNE visible
17 Sep - 03:31:51 10° NW 03:35:09 15° NNW 03:38:25 10° NNE visible
17 Sep - 05:17:12 10° NNW 05:20:18 14° NNE 05:23:19 10° NE visible
17 Sep - 06:59:39 10° NNW 07:04:50 30° NE 07:09:42 10° E daylight
17 Sep - 08:42:05 10° NW 08:47:54 71° WSW 08:53:14 10° SSE daylight
17 Sep - 10:27:13 10° W 10:29:14 12° W 10:31:12 10° WSW daylight
17 Sep - 23:17:49 10° S 23:23:24 45° ESE 23:29:10 10° NE visible
18 Sep - 01:00:16 10° WSW 01:06:01 45° NW 01:11:51 10° NNE visible
18 Sep - 02:46:11 10° WNW 02:50:06 17° NNW 02:54:01 10° NNE visible
18 Sep - 04:32:29 10° NNW 04:35:10 13° N 04:37:49 10° NNE visible
18 Sep - 06:15:24 10° NNW 06:20:01 23° NNE 06:24:24 10° E daylight
18 Sep - 07:57:39 10° NNW 08:03:34 75° NE 08:08:57 10° SE daylight
18 Sep - 09:41:14 10° WNW 09:45:23 21° WSW 09:49:17 10° SSW daylight
18 Sep - 22:34:23 10° SSE 22:39:19 28° ESE 22:44:23 10° NE visible
19 Sep - 00:15:30 10° SW 00:21:27 65° NW 00:27:32 10° NNE visible
19 Sep - 02:00:33 10° WNW 02:05:09 22° NNW 02:09:44 10° NNE visible
19 Sep - 03:47:22 10° NNW 03:50:01 13° N 03:52:39 10° NNE visible
19 Sep - 05:31:06 10° NNW 05:35:03 18° NNE 05:38:53 10° ENE visible
19 Sep - 07:13:19 10° NNW 07:19:03 49° NE 07:24:20 10° ESE daylight
19 Sep - 08:56:15 10° NW 09:01:24 35° WSW 09:06:09 10° S daylight
19 Sep - 21:51:40 10° SE 21:55:21 17° ESE 21:59:07 10° ENE visible
19 Sep - 23:31:02 10° SSW 23:37:01 84° ESE 23:43:10 10° NE visible
20 Sep - 01:15:07 10° W 01:20:16 28° NW 01:25:28 10° NNE visible
20 Sep - 03:01:51 10° NW 03:04:53 14° N 03:07:53 10° NNE visible
20 Sep - 04:46:42 10° NNW 04:50:01 15° NNE 04:53:14 10° NE visible
20 Sep - 06:29:02 10° NNW 06:34:24 34° NE 06:39:24 10° ESE daylight
20 Sep - 08:11:34 10° NW 08:17:16 57° WSW 08:22:27 10° SSE daylight
20 Sep - 22:46:57 10° SSW 22:52:44 55° ESE 22:58:40 10° NE visible
